Hourly Weather Alkadar

Today, 8 March, Monday

Time Temperature Precipitation Wind Pressure Humidity
00:00 -2°C° 0 mm 1 mps 708 mmHg 77%
01:00 -2°C° 0 mm 1 mps 707 mmHg 76%
02:00 -2°C° 0 mm 1 mps 707 mmHg 76%
03:00 -3°C° 0 mm 2 mps 707 mmHg 75%
04:00 -1°C° 0 mm 1 mps 707 mmHg 76%
05:00 -2°C° 0 mm 1 mps 707 mmHg 78%
06:00 -2°C° 0 mm 1 mps 707 mmHg 79%
07:00 -1°C° 0 mm 1 mps 706 mmHg 78%
08:00 -2°C° 0 mm 2 mps 706 mmHg 77%
09:00 -1°C° 0 mm 2 mps 706 mmHg 77%
10:00 +1°C° 0 mm 2 mps 706 mmHg 77%
11:00 +1°C° 0 mm 2 mps 705 mmHg 77%
12:00 +2°C° 0 mm 2 mps 705 mmHg 78%
13:00 +2°C° 0 mm 2 mps 704 mmHg 80%
14:00 +2°C° 0 mm 2 mps 703 mmHg 83%
15:00 +2°C° 0 mm 2 mps 702 mmHg 85%
16:00 +1°C° 0.1 mm 2 mps 702 mmHg 89%
17:00 +1°C° 0.1 mm 2 mps 703 mmHg 92%
18:00 -1°C° 0.1 mm 2 mps 703 mmHg 96%
19:00 +1°C° 0.5 mm 1 mps 703 mmHg 95%
20:00 +1°C° 0.5 mm 1 mps 703 mmHg 95%
21:00 +1°C° 0.5 mm 1 mps 703 mmHg 94%
22:00 0°C° 0.3 mm 1 mps 703 mmHg 94%
23:00 0°C° 0.3 mm 1 mps 703 mmHg 95%

Tomorrow, 9 March, Tuesday

Time Temperature Precipitation Wind Pressure Humidity
00:00 0°C° 0.3 mm 1 mps 703 mmHg 95%
01:00 0°C° 0.1 mm 1 mps 703 mmHg 94%
02:00 0°C° 0.1 mm 1 mps 703 mmHg 94%
03:00 -1°C° 0.1 mm 1 mps 703 mmHg 93%
04:00 -1°C° 0 mm 1 mps 703 mmHg 92%
05:00 -1°C° 0 mm 1 mps 703 mmHg 90%
06:00 -1°C° 0 mm 1 mps 703 mmHg 88%
07:00 0°C° 0 mm 1 mps 703 mmHg 87%
08:00 0°C° 0 mm 1 mps 703 mmHg 85%
09:00 +1°C° 0 mm 1 mps 704 mmHg 83%
10:00 +2°C° 0 mm 1 mps 704 mmHg 83%
11:00 +1°C° 0 mm 2 mps 704 mmHg 82%
12:00 +2°C° 0 mm 2 mps 704 mmHg 81%
13:00 +1°C° 0.1 mm 2 mps 704 mmHg 83%
14:00 +1°C° 0.1 mm 2 mps 703 mmHg 85%
15:00 +1°C° 0.1 mm 2 mps 703 mmHg 87%
16:00 +1°C° 0.1 mm 2 mps 704 mmHg 88%
17:00 +1°C° 0.1 mm 1 mps 704 mmHg 89%
18:00 +1°C° 0.1 mm 1 mps 704 mmHg 89%
19:00 0°C° 0 mm 1 mps 704 mmHg 86%
20:00 0°C° 0 mm 1 mps 705 mmHg 83%
21:00 0°C° 0 mm 1 mps 705 mmHg 80%
22:00 0°C° 0 mm 1 mps 705 mmHg 76%
23:00 0°C° 0 mm 1 mps 705 mmHg 72%

Day after tomorrow, 10 March, Wednesday

Time Temperature Precipitation Wind Pressure Humidity
00:00 -1°C° 0 mm 1 mps 705 mmHg 68%
01:00 -1°C° 0 mm 1 mps 705 mmHg 66%
02:00 -1°C° 0 mm 1 mps 706 mmHg 65%
03:00 -1°C° 0 mm 1 mps 706 mmHg 63%
04:00 -3°C° 0 mm 2 mps 706 mmHg 64%
05:00 -3°C° 0 mm 2 mps 706 mmHg 65%
06:00 -3°C° 0 mm 2 mps 707 mmHg 66%
07:00 -3°C° 0.1 mm 2 mps 707 mmHg 73%
08:00 -2°C° 0.1 mm 2 mps 707 mmHg 81%
09:00 -1°C° 0.1 mm 2 mps 707 mmHg 89%
10:00 -1°C° 0.2 mm 2 mps 707 mmHg 88%
11:00 -1°C° 0.2 mm 2 mps 707 mmHg 88%
12:00 +1°C° 0.2 mm 2 mps 707 mmHg 87%
13:00 +1°C° 0.3 mm 2 mps 707 mmHg 87%
14:00 +1°C° 0.3 mm 2 mps 707 mmHg 88%
15:00 +1°C° 0.3 mm 2 mps 707 mmHg 88%
16:00 -1°C° 0.3 mm 2 mps 707 mmHg 90%
17:00 -1°C° 0.3 mm 2 mps 707 mmHg 92%
18:00 0°C° 0.3 mm 1 mps 707 mmHg 94%
19:00 0°C° 0.3 mm 1 mps 707 mmHg 94%
20:00 0°C° 0.3 mm 1 mps 707 mmHg 94%
21:00 -1°C° 0.3 mm 1 mps 707 mmHg 94%
22:00 -1°C° 0.5 mm 1 mps 707 mmHg 94%
23:00 -1°C° 0.5 mm 1 mps 707 mmHg 94%

11 March, Thursday

Time Temperature Precipitation Wind Pressure Humidity
00:00 -1°C° 0.5 mm 1 mps 706 mmHg 94%
01:00 -1°C° 0.6 mm 1 mps 706 mmHg 95%
02:00 -1°C° 0.6 mm 1 mps 706 mmHg 96%
03:00 -2°C° 0.6 mm 1 mps 706 mmHg 96%
04:00 -2°C° 0.5 mm 1 mps 705 mmHg 96%
05:00 -2°C° 0.5 mm 1 mps 705 mmHg 97%
06:00 -2°C° 0.5 mm 1 mps 705 mmHg 97%
07:00 -1°C° 0.7 mm 1 mps 705 mmHg 97%
08:00 -3°C° 0.7 mm 2 mps 705 mmHg 97%
09:00 -2°C° 0.7 mm 2 mps 706 mmHg 96%
10:00 -2°C° 0.7 mm 2 mps 705 mmHg 96%
11:00 -2°C° 0.7 mm 2 mps 705 mmHg 96%
12:00 -2°C° 0.7 mm 2 mps 705 mmHg 97%
13:00 -2°C° 0.9 mm 2 mps 704 mmHg 97%
14:00 -2°C° 0.9 mm 2 mps 704 mmHg 97%
15:00 -2°C° 0.9 mm 2 mps 704 mmHg 97%
16:00 -3°C° 1.2 mm 2 mps 704 mmHg 97%
17:00 -3°C° 1.2 mm 2 mps 704 mmHg 97%
18:00 -4°C° 1.2 mm 2 mps 704 mmHg 98%
19:00 -4°C° 1 mm 2 mps 704 mmHg 98%
20:00 -4°C° 1 mm 2 mps 704 mmHg 98%
21:00 -3°C° 1 mm 1 mps 704 mmHg 97%
22:00 -3°C° 0.9 mm 1 mps 704 mmHg 97%
23:00 -3°C° 0.9 mm 1 mps 704 mmHg 97%

12 March, Friday

Time Temperature Precipitation Wind Pressure Humidity
00:00 -3°C° 0.9 mm 1 mps 704 mmHg 97%
01:00 -3°C° 1 mm 1 mps 704 mmHg 97%
02:00 -6°C° 1 mm 2 mps 704 mmHg 97%
03:00 -6°C° 1 mm 2 mps 704 mmHg 97%
04:00 -6°C° 1.3 mm 2 mps 704 mmHg 97%
05:00 -6°C° 1.3 mm 2 mps 704 mmHg 97%
06:00 -6°C° 1.3 mm 2 mps 705 mmHg 97%
07:00 -6°C° 1.1 mm 2 mps 705 mmHg 96%
08:00 -7°C° 1.1 mm 3 mps 706 mmHg 96%
09:00 -6°C° 1.1 mm 3 mps 706 mmHg 96%
10:00 -6°C° 0.8 mm 3 mps 706 mmHg 96%
11:00 -6°C° 0.8 mm 3 mps 706 mmHg 96%
12:00 -6°C° 0.8 mm 3 mps 706 mmHg 96%
13:00 -7°C° 0.9 mm 4 mps 707 mmHg 96%
14:00 -7°C° 0.9 mm 4 mps 707 mmHg 96%
15:00 -7°C° 0.9 mm 4 mps 707 mmHg 97%
16:00 -8°C° 1.2 mm 4 mps 707 mmHg 97%
17:00 -7°C° 1.2 mm 3 mps 708 mmHg 97%
18:00 -8°C° 1.2 mm 3 mps 708 mmHg 97%
19:00 -8°C° 1 mm 3 mps 709 mmHg 97%
20:00 -8°C° 1 mm 3 mps 710 mmHg 97%
21:00 -9°C° 1 mm 3 mps 710 mmHg 97%
22:00 -8°C° 0.5 mm 2 mps 710 mmHg 97%
23:00 -9°C° 0.5 mm 2 mps 710 mmHg 97%

13 March, Saturday

Time Temperature Precipitation Wind Pressure Humidity
00:00 -9°C° 0.5 mm 2 mps 711 mmHg 97%
01:00 -10°C° 0.1 mm 2 mps 711 mmHg 95%
02:00 -10°C° 0.1 mm 2 mps 711 mmHg 94%
03:00 -10°C° 0.1 mm 1 mps 711 mmHg 93%
04:00 -10°C° 0.1 mm 1 mps 711 mmHg 91%
05:00 -13°C° 0.1 mm 2 mps 712 mmHg 88%
06:00 -13°C° 0.1 mm 2 mps 712 mmHg 86%
07:00 -10°C° 0 mm 1 mps 713 mmHg 83%
08:00 -8°C° 0 mm 1 mps 713 mmHg 80%
09:00 -7°C° 0 mm 1 mps 714 mmHg 76%
10:00 -6°C° 0 mm 1 mps 714 mmHg 80%
11:00 -7°C° 0 mm 2 mps 714 mmHg 84%
12:00 -6°C° 0 mm 2 mps 714 mmHg 87%
13:00 -6°C° 0.1 mm 2 mps 714 mmHg 89%
14:00 -6°C° 0.1 mm 2 mps 713 mmHg 90%
15:00 -6°C° 0.1 mm 2 mps 713 mmHg 91%
16:00 -7°C° 0.1 mm 2 mps 713 mmHg 92%
17:00 -7°C° 0.1 mm 1 mps 713 mmHg 93%
18:00 -8°C° 0.1 mm 1 mps 713 mmHg 94%
19:00 -8°C° 0 mm 1 mps 713 mmHg 91%
20:00 -9°C° 0 mm 1 mps 713 mmHg 89%
21:00 -9°C° 0 mm 1 mps 713 mmHg 86%
22:00 -9°C° 0 mm 1 mps 712 mmHg 82%
23:00 -10°C° 0 mm 2 mps 712 mmHg 77%
Show more